Location: Adrasan
(36.3319°N, 30.4314°E)
Time: 06:57:06
(UTC+00:00)

Meteor 1-26 Rocket - Pass Details

Date: 09 December 2023
Orbit: 805 x 929 km, 81.3° (Epoch: 29 February)

Event Time Altitude Azimuth Distance (km) Brightness Sun altitude
Rises 15:39:15 0° 181° (S) 3,348 7.6 -11.1°
Reaches altitude 10° 15:41:37 10° 179° (S) 2,433 6.9 -11.6°
Maximum altitude 15:47:06 73° 96° (E) 892 4.2 -12.6°
Drops below altitude 10° 15:52:49 10° 13° (NNE) 2,531 6.4 -13.7°
Sets 15:55:19 0° 11° (NNE) 3,492 7.1 -14.2°
